Location: Gleizolles
(44.4833°N, 6.7667°E)
Time: 20:48:49
(UTC+00:00)

A-11 Canister half - Pass Details

Date: 02 July 2024
Orbit: 1524 x 1684 km, 47.3° (Epoch: 18 July)

Event Time Altitude Azimuth Distance (km) Brightness Sun altitude
Rises 16:15:32 0° 294° (WNW) 4,696 12.6 30.2°
Reaches altitude 10° 16:18:48 10° 287° (WNW) 3,701 12.5 29.6°
Maximum altitude 16:27:14 41° 222° (SW) 2,088 10.5 28.1°
Drops below altitude 10° 16:35:41 10° 156° (SSE) 3,697 10.8 26.6°
Sets 16:38:57 0° 150° (SSE) 4,691 11.2 26.0°
